Terug naar catalogus

NOAA 17 DEB

ActiefPO
NORAD 48720·DEBRIS·🇺🇸 United States

Gelanceerd Jun 24, 2002 vanaf Vandenberg Space Force Base

Loading…

Volgende Passages (komende 24 uur)

TLE

VersSource: Space-Track

Epoch: Sep 14, 2026, 06:10 UTC

1 48720U 02032BD  26257.25740681  .00004861  00000-0  11040-2 0  9990
2 48720  98.8318 271.2593 0029866  71.7897 288.6546 14.56224646287937

Volg NOAA 17 DEB in realtime met AllMySat

Download on the App Store